TimeEST,TemperatureF,Dew PointF,Humidity,Sea Level PressureIn,VisibilityMPH,Wind Direction,Wind SpeedMPH,Gust SpeedMPH,PrecipitationIn,Events,Conditions,WindDirDegrees,DateUTC
12:54 AM,-0.9,-6.0,79,30.23,10.0,WSW,6.9,-,N/A,,Clear,240,2013-01-23 05:54:00
1:54 AM,-2.0,-7.1,79,30.23,10.0,WSW,6.9,-,N/A,,Clear,240,2013-01-23 06:54:00
2:54 AM,-2.9,-8.0,79,30.24,10.0,SW,5.8,-,N/A,,Clear,230,2013-01-23 07:54:00
3:54 AM,-2.9,-8.0,79,30.22,10.0,SW,4.6,-,N/A,,Clear,230,2013-01-23 08:54:00
4:54 AM,-0.9,-5.1,83,30.21,7.0,SW,3.5,-,0.00,Snow,Light Snow,230,2013-01-23 09:54:00
5:54 AM,1.0,-4.0,79,30.20,6.0,SW,3.5,-,0.00,Snow,Light Snow,230,2013-01-23 10:54:00
6:54 AM,1.4,-2.2,85,30.13,10.0,SW,3.5,-,N/A,,Scattered Clouds,220,2013-01-23 11:54:00
7:54 AM,-0.0,-4.0,83,30.18,10.0,SSW,4.6,-,N/A,,Clear,200,2013-01-23 12:54:00
8:00 AM,-0.4,-4.0,85,30.12,10.0,South,4.6,-,N/A,,Overcast,190,2013-01-23 13:00:00
8:54 AM,3.9,-2.0,76,30.16,10.0,SW,9.2,-,N/A,,Mostly Cloudy,220,2013-01-23 13:54:00
9:54 AM,6.1,-0.0,76,30.15,10.0,SW,9.2,-,N/A,,Overcast,220,2013-01-23 14:54:00
10:54 AM,8.1,1.0,73,30.15,10.0,SW,9.2,-,N/A,,Overcast,230,2013-01-23 15:54:00
11:54 AM,10.0,1.0,67,30.14,10.0,WSW,13.8,18.4,N/A,,Overcast,240,2013-01-23 16:54:00
12:54 PM,12.0,1.0,61,30.11,10.0,SW,9.2,16.1,N/A,,Mostly Cloudy,230,2013-01-23 17:54:00
1:54 PM,12.9,-0.9,54,30.08,10.0,WSW,9.2,-,N/A,,Overcast,250,2013-01-23 18:54:00
2:54 PM,12.9,-0.9,54,30.07,10.0,SW,5.8,-,N/A,,Mostly Cloudy,220,2013-01-23 19:54:00
3:54 PM,12.9,1.0,59,30.08,10.0,WSW,5.8,-,N/A,,Overcast,250,2013-01-23 20:54:00
4:54 PM,12.9,1.0,59,30.08,10.0,WSW,6.9,-,N/A,,Overcast,240,2013-01-23 21:54:00
5:54 PM,12.0,1.9,64,30.09,10.0,Calm,Calm,-,N/A,,Overcast,0,2013-01-23 22:54:00
6:54 PM,12.0,3.0,67,30.11,10.0,Calm,Calm,-,N/A,,Overcast,0,2013-01-23 23:54:00
7:54 PM,12.0,5.0,73,30.12,8.0,Calm,Calm,-,0.00,,Overcast,0,2013-01-24 00:54:00
8:54 PM,10.0,6.1,84,30.13,10.0,Calm,Calm,-,N/A,,Overcast,0,2013-01-24 01:54:00
9:54 PM,9.0,5.0,84,30.16,10.0,Calm,Calm,-,N/A,,Overcast,0,2013-01-24 02:54:00
10:30 PM,10.4,6.8,85,30.12,1.8,NW,4.6,-,0.00,Snow,Light Snow,320,2013-01-24 03:30:00
10:51 PM,10.4,6.8,85,30.13,1.0,NW,3.5,-,0.00,Snow,Light Snow,310,2013-01-24 03:51:00
10:54 PM,10.0,6.1,84,30.18,1.0,WNW,3.5,-,0.00,Snow,Light Snow,300,2013-01-24 03:54:00
11:38 PM,10.4,6.8,85,30.15,2.0,NNW,8.1,-,0.02,Snow,Light Snow,330,2013-01-24 04:38:00
11:47 PM,10.4,6.8,85,30.15,4.0,NNW,9.2,-,0.02,Snow,Light Snow,340,2013-01-24 04:47:00
11:54 PM,10.0,5.0,80,30.21,8.0,North,10.4,-,0.02,,Overcast,360,2013-01-24 04:54:00